FW2182 Weather Reports


time (UTC)temp
C
wind
direction
speed
KPH
gust
KPH
rain 1hr
cm
rain 24hr
cm
rain mn
cm
humidity
%
barometer
mb
20260509204812 18 196 1.6 12.9 0.00 0.30 0.25 69 1007.7
20260509204314 18 178 0.0 4.8 0.00 0.30 0.25 67 1007.8
20260509203817 18 148 0.0 8.0 0.00 0.30 0.25 68 1007.9
20260509203318 17 213 0.0 8.0 0.00 0.30 0.25 68 1008.1
20260509202821 17 173 0.0 3.2 0.00 0.30 0.25 70 1007.9
20260509202325 17 180 0.0 3.2 0.00 0.30 0.25 68 1007.9
20260509201826 17 169 0.0 11.3 0.00 0.30 0.25 71 1008.1
20260509201327 18 235 1.6 11.3 0.00 0.30 0.25 69 1008.1
20260509200829 18 219 0.0 6.4 0.00 0.30 0.25 67 1008.1
20260509200351 18 198 0.0 6.4 0.00 0.30 0.25 69 1008.1
20260509195812 18 205 0.0 4.8 0.00 0.30 0.25 68 1008.2
20260509195336 18 186 0.0 12.9 0.00 0.30 0.25 72 1008.2
20260509194817 17 218 0.0 19.3 0.00 0.30 0.25 71 1008.3
20260509194318 17 255 1.6 19.3 0.00 0.30 0.25 72 1008.3
20260509193820 17 187 0.0 12.9 0.00 0.30 0.25 74 1008.4
20260509193320 16 189 1.6 12.9 0.00 0.30 0.25 73 1008.4
20260509192823 17 169 0.0 9.7 0.00 0.30 0.25 74 1008.4
20260509192326 17 223 0.0 16.1 0.00 0.30 0.25 76 1008.5
20260509191829 16 148 1.6 16.1 0.00 0.30 0.25 74 1008.5
20260509191332 17 205 0.0 1.6 0.00 0.30 0.25 75 1008.5
20260509190813 17 211 0.0 29.0 0.00 0.30 0.25 75 1008.5
20260509190318 16 184 3.2 29.0 0.00 0.30 0.25 76 1008.6
20260509185821 16 186 0.0 8.0 0.00 0.30 0.25 77 1008.8
20260509185342 16 166 0.0 3.2 0.00 0.30 0.25 78 1008.8
20260509184821 16 186 0.0 4.8 0.00 0.30 0.25 80 1008.8
20260509184324 16 182 0.0 6.4 0.00 0.30 0.25 78 1008.8
20260509183827 16 235 0.0 19.3 0.00 0.30 0.25 77 1008.8
20260509183329 16 252 3.2 19.3 0.00 0.30 0.25 78 1008.8
20260509182832 15 165 0.0 6.4 0.00 0.30 0.25 80 1009.1
20260509182315 15 252 0.0 6.4 0.00 0.30 0.25 77 1009.1
20260509144313 11 207 0.0 0.0 0.03 0.28 0.23 95 1008.6
20260509143816 11 174 0.0 0.0 0.03 0.28 0.23 95 1008.7
20260509143338 11 179 0.0 0.0 0.03 0.28 0.23 95 1008.8
20260509142818 11 189 0.0 9.7 0.03 0.28 0.23 95 1008.7
20260509142319 11 157 1.6 11.3 0.03 0.28 0.23 95 1008.7
20260509141824 11 173 0.0 11.3 0.00 0.25 0.20 95 1008.7
20260509141328 11 217 0.0 4.8 0.00 0.25 0.20 95 1008.8
20260509140846 11 209 0.0 6.4 0.00 0.25 0.20 95 1008.9
20260509140326 11 168 0.0 9.7 0.00 0.25 0.20 95 1008.9
20260509135829 11 199 0.0 9.7 0.00 0.25 0.20 95 1008.8
20260509135332 11 283 0.0 9.7 0.00 0.25 0.20 95 1008.8
20260509134814 11 177 1.6 9.7 0.00 0.25 0.20 95 1008.8
20260509134346 10 154 0.0 6.4 0.00 0.25 0.20 95 1008.9
20260509133829 10 177 0.0 11.3 0.03 0.25 0.20 95 1008.8
20260509133351 10 210 0.0 12.9 0.03 0.25 0.20 95 1008.9
20260509132833 10 172 0.0 14.5 0.03 0.25 0.20 95 1008.9
20260509132315 10 140 0.0 14.5 0.03 0.25 0.20 95 1009.0
20260509131820 10 180 0.0 12.9 0.03 0.25 0.20 95 1009.0
20260509131323 10 177 1.6 12.9 0.03 0.25 0.20 95 1009.1
20260509130824 10 186 0.0 8.0 0.05 0.25 0.20 95 1009.0
20260509130324 10 197 0.0 3.2 0.05 0.25 0.20 95 1009.0
20260509125827 10 175 0.0 8.0 0.05 0.25 0.20 95 1009.0
20260509125330 10 152 0.0 8.0 0.05 0.25 0.20 95 1009.1
20260509124833 10 175 0.0 6.4 0.05 0.25 0.20 95 1009.1
20260509124318 10 225 0.0 6.4 0.08 0.25 0.20 95 1009.2
20260509123824 10 160 0.0 8.0 0.05 0.23 0.18 95 1009.2
20260509123712 10 192 0.0 8.0 0.05 0.23 0.18 95 1009.3
20260509045315 10 166 0.0 0.0 0.00 0.05 0.00 92 1010.1
20260509044818 10 166 0.0 0.0 0.00 0.05 0.00 92 1010.1
20260509044321 10 167 0.0 0.0 0.00 0.05 0.00 92 1010.1
20260509043822 10 167 0.0 0.0 0.00 0.05 0.00 92 1010.1
20260509043323 10 167 0.0 0.0 0.00 0.05 0.00 92 1010.2
20260509042846 10 167 0.0 0.0 0.00 0.05 0.00 92 1010.2
20260509042328 10 167 0.0 0.0 0.00 0.05 0.00 92 1010.3
20260509041832 10 167 0.0 0.0 0.00 0.05 0.00 92 1010.4
20260509041315 10 167 0.0 0.0 0.00 0.05 0.00 91 1010.4
20260509040818 10 167 0.0 0.0 0.00 0.05 0.00 91 1010.4
20260509040336 10 167 0.0 0.0 0.00 0.05 0.05 91 1010.5
20260509035832 10 167 0.0 0.0 0.00 0.05 0.05 91 1011.0
20260509035314 10 167 0.0 0.0 0.00 0.05 0.05 91 1010.6
20260509034818 10 167 0.0 0.0 0.00 0.05 0.05 91 1010.7
20260509034321 10 167 0.0 0.0 0.00 0.05 0.05 90 1011.0
20260509033824 10 167 0.0 0.0 0.03 0.05 0.05 90 1011.0
20260509033328 10 167 0.0 0.0 0.03 0.05 0.05 90 1011.0
20260509032828 10 167 0.0 0.0 0.03 0.05 0.05 90 1011.2
20260509032329 10 167 0.0 0.0 0.03 0.05 0.05 90 1011.3
20260509031852 10 167 0.0 0.0 0.03 0.05 0.05 89 1011.3
20260509031314 10 167 0.0 0.0 0.05 0.05 0.05 89 1011.3
20260509030819 10 167 0.0 0.0 0.05 0.05 0.05 89 1011.3
20260509030321 10 167 0.0 0.0 0.05 0.05 0.05 88 1011.6
20260509025823 10 167 0.0 0.0 0.05 0.05 0.05 87 1011.7
20260509025326 10 167 0.0 0.0 0.05 0.05 0.05 87 1011.6
20260509024829 10 167 0.0 0.0 0.05 0.05 0.05 85 1011.7
20260509024348 10 167 0.0 0.0 0.05 0.05 0.05 84 1011.6
20260509023849 11 167 0.0 0.0 0.03 0.03 0.03 84 1011.6
20260509023330 11 167 0.0 0.0 0.03 0.03 0.03 83 1011.7
20260509022832 11 167 0.0 0.0 0.03 0.03 0.03 83 1011.8
20260509022314 11 167 0.0 0.0 0.03 0.03 0.03 82 1011.7
20260509021837 11 167 0.0 0.0 0.03 0.03 0.03 81 1011.7
20260509021335 11 167 0.0 0.0 0.00 0.00 0.00 81 1011.8
20260509020836 11 167 0.0 0.0 0.00 0.00 0.00 82 1011.7
20260509020340 11 167 0.0 0.0 0.00 0.00 0.00 81 1011.7
20260509015903 11 162 0.0 0.0 0.00 0.00 0.00 80 1011.7